Time,TemperatureF,DewpointF,PressureIn,WindDirection,WindDirectionDegrees,WindSpeedMPH,WindSpeedGustMPH,Humidity,HourlyPrecipIn,Conditions,Clouds,dailyrainin,SoftwareType,DateUTC
2013-11-12 00:01:00,26.7,11.5,30.42,North,-999,-999.0,-999.0,52,0.00,,,0.00,WSDL version 443,2013-11-12 05:01:00,
2013-11-12 00:06:00,26.8,10.5,30.42,North,-999,-999.0,-999.0,50,0.00,,,0.00,WSDL version 443,2013-11-12 05:06:00,
2013-11-12 00:11:00,27.0,10.7,30.42,North,-999,-999.0,-999.0,50,0.00,,,0.00,WSDL version 443,2013-11-12 05:11:00,
2013-11-12 00:16:00,27.0,9.7,30.42,North,-999,-999.0,-999.0,48,0.00,,,0.00,WSDL version 443,2013-11-12 05:16:00,
2013-11-12 00:21:00,26.7,9.2,30.45,North,-999,-999.0,-999.0,47,0.00,,,0.00,WSDL version 443,2013-11-12 05:21:00,
2013-11-12 00:26:00,26.5,8.5,30.45,North,-999,-999.0,-999.0,46,0.00,,,0.00,WSDL version 443,2013-11-12 05:26:00,
2013-11-12 00:31:00,26.4,8.0,30.45,North,-999,-999.0,-999.0,45,0.00,,,0.00,WSDL version 443,2013-11-12 05:31:00,
2013-11-12 00:36:00,26.3,7.6,30.45,North,-999,-999.0,-999.0,45,0.00,,,0.00,WSDL version 443,2013-11-12 05:36:00,
2013-11-12 00:41:00,26.1,7.9,30.45,North,-999,-999.0,-999.0,46,0.00,,,0.00,WSDL version 443,2013-11-12 05:41:00,
2013-11-12 00:46:00,25.9,6.5,30.45,North,-999,-999.0,-999.0,43,0.00,,,0.00,WSDL version 443,2013-11-12 05:46:00,
2013-11-12 00:51:00,26.0,5.4,30.45,North,-999,-999.0,-999.0,41,0.00,,,0.00,WSDL version 443,2013-11-12 05:51:00,
2013-11-12 00:56:00,25.9,4.0,30.45,North,-999,-999.0,-999.0,38,0.00,,,0.00,WSDL version 443,2013-11-12 05:56:00,
2013-11-12 01:01:00,25.8,4.5,30.45,North,-999,-999.0,-999.0,40,0.00,,,0.00,WSDL version 443,2013-11-12 06:01:00,
2013-11-12 01:06:00,25.6,4.4,30.45,North,-999,-999.0,-999.0,40,0.00,,,0.00,WSDL version 443,2013-11-12 06:06:00,
2013-11-12 01:11:00,25.6,4.5,30.45,North,-999,-999.0,-999.0,40,0.00,,,0.00,WSDL version 443,2013-11-12 06:11:00,
2013-11-12 01:16:00,25.4,4.7,30.45,North,-999,-999.0,-999.0,41,0.00,,,0.00,WSDL version 443,2013-11-12 06:16:00,
2013-11-12 01:21:00,25.3,5.0,30.47,North,-999,-999.0,-999.0,41,0.00,,,0.00,WSDL version 443,2013-11-12 06:21:00,
2013-11-12 01:26:00,25.1,5.2,30.47,North,-999,-999.0,-999.0,42,0.00,,,0.00,WSDL version 443,2013-11-12 06:26:00,
2013-11-12 01:31:00,24.8,5.4,30.47,North,-999,-999.0,-999.0,43,0.00,,,0.00,WSDL version 443,2013-11-12 06:31:00,
2013-11-12 01:36:00,24.5,5.3,30.47,North,-999,-999.0,-999.0,43,0.00,,,0.00,WSDL version 443,2013-11-12 06:36:00,
2013-11-12 01:41:00,24.4,5.6,30.47,North,-999,-999.0,-999.0,44,0.00,,,0.00,WSDL version 443,2013-11-12 06:41:00,
2013-11-12 01:46:00,24.2,5.8,30.47,North,-999,-999.0,-999.0,45,0.00,,,0.00,WSDL version 443,2013-11-12 06:46:00,
2013-11-12 01:51:00,23.9,6.6,30.47,North,-999,-999.0,-999.0,47,0.00,,,0.00,WSDL version 443,2013-11-12 06:51:00,
2013-11-12 01:56:00,23.9,7.1,30.47,North,-999,-999.0,-999.0,48,0.00,,,0.00,WSDL version 443,2013-11-12 06:56:00,
2013-11-12 02:01:00,23.8,6.9,30.47,North,-999,-999.0,-999.0,48,0.00,,,0.00,WSDL version 443,2013-11-12 07:01:00,
2013-11-12 02:06:00,23.5,6.7,30.47,North,-999,-999.0,-999.0,48,0.00,,,0.00,WSDL version 443,2013-11-12 07:06:00,
2013-11-12 02:11:00,23.5,6.7,30.47,North,-999,-999.0,-999.0,48,0.00,,,0.00,WSDL version 443,2013-11-12 07:11:00,
2013-11-12 02:16:00,23.7,6.7,30.47,North,-999,-999.0,-999.0,48,0.00,,,0.00,WSDL version 443,2013-11-12 07:16:00,
2013-11-12 02:21:00,23.7,6.4,30.50,North,-999,-999.0,-999.0,47,0.00,,,0.00,WSDL version 443,2013-11-12 07:21:00,
2013-11-12 02:26:00,23.7,6.7,30.50,North,-999,-999.0,-999.0,48,0.00,,,0.00,WSDL version 443,2013-11-12 07:26:00,
2013-11-12 02:31:00,23.5,6.7,30.50,North,-999,-999.0,-999.0,48,0.00,,,0.00,WSDL version 443,2013-11-12 07:31:00,
2013-11-12 02:36:00,23.5,6.5,30.50,North,-999,-999.0,-999.0,48,0.00,,,0.00,WSDL version 443,2013-11-12 07:36:00,
2013-11-12 02:41:00,23.5,6.6,30.50,North,-999,-999.0,-999.0,48,0.00,,,0.00,WSDL version 443,2013-11-12 07:41:00,
2013-11-12 02:46:00,23.5,6.7,30.50,North,-999,-999.0,-999.0,48,0.00,,,0.00,WSDL version 443,2013-11-12 07:46:00,
2013-11-12 02:51:00,23.5,6.7,30.50,North,-999,-999.0,-999.0,48,0.00,,,0.00,WSDL version 443,2013-11-12 07:51:00,
2013-11-12 02:56:00,23.5,7.0,30.50,North,-999,-999.0,-999.0,49,0.00,,,0.00,WSDL version 443,2013-11-12 07:56:00,
2013-11-12 03:01:00,23.4,7.0,30.50,North,-999,-999.0,-999.0,49,0.00,,,0.00,WSDL version 443,2013-11-12 08:01:00,
2013-11-12 03:06:00,23.2,7.3,30.50,North,-999,-999.0,-999.0,50,0.00,,,0.00,WSDL version 443,2013-11-12 08:06:00,
2013-11-12 03:11:00,22.9,7.5,30.50,North,-999,-999.0,-999.0,51,0.00,,,0.00,WSDL version 443,2013-11-12 08:11:00,
2013-11-12 03:16:00,22.8,8.0,30.50,North,-999,-999.0,-999.0,52,0.00,,,0.00,WSDL version 443,2013-11-12 08:16:00,
2013-11-12 03:21:00,22.7,8.2,30.50,North,-999,-999.0,-999.0,53,0.00,,,0.00,WSDL version 443,2013-11-12 08:21:00,
2013-11-12 03:26:00,22.8,9.0,30.50,North,-999,-999.0,-999.0,55,0.00,,,0.00,WSDL version 443,2013-11-12 08:26:00,
2013-11-12 03:31:00,22.8,9.5,30.50,North,-999,-999.0,-999.0,56,0.00,,,0.00,WSDL version 443,2013-11-12 08:31:00,
2013-11-12 03:36:00,22.8,9.9,30.50,North,-999,-999.0,-999.0,57,0.00,,,0.00,WSDL version 443,2013-11-12 08:36:00,
2013-11-12 03:41:00,22.9,10.5,30.50,North,-999,-999.0,-999.0,59,0.00,,,0.00,WSDL version 443,2013-11-12 08:41:00,
2013-11-12 03:46:00,23.2,11.3,30.50,North,-999,-999.0,-999.0,60,0.00,,,0.00,WSDL version 443,2013-11-12 08:46:00,
2013-11-12 03:51:00,23.5,11.6,30.50,North,-999,-999.0,-999.0,60,0.00,,,0.00,WSDL version 443,2013-11-12 08:51:00,
2013-11-12 03:56:00,23.6,11.3,30.50,North,-999,-999.0,-999.0,59,0.00,,,0.00,WSDL version 443,2013-11-12 08:56:00,
2013-11-12 04:01:00,23.8,10.9,30.50,North,-999,-999.0,-999.0,57,0.00,,,0.00,WSDL version 443,2013-11-12 09:01:00,
2013-11-12 04:06:00,23.9,10.9,30.50,North,-999,-999.0,-999.0,57,0.00,,,0.00,WSDL version 443,2013-11-12 09:06:00,
2013-11-12 04:11:00,24.1,11.1,30.50,North,-999,-999.0,-999.0,57,0.00,,,0.00,WSDL version 443,2013-11-12 09:11:00,
2013-11-12 04:16:00,24.3,11.2,30.50,North,-999,-999.0,-999.0,57,0.00,,,0.00,WSDL version 443,2013-11-12 09:16:00,
2013-11-12 04:21:00,24.3,11.1,30.53,North,-999,-999.0,-999.0,57,0.00,,,0.00,WSDL version 443,2013-11-12 09:21:00,
2013-11-12 04:26:00,24.3,10.6,30.53,North,-999,-999.0,-999.0,56,0.00,,,0.00,WSDL version 443,2013-11-12 09:26:00,
2013-11-12 04:31:00,24.3,10.4,30.53,North,-999,-999.0,-999.0,55,0.00,,,0.00,WSDL version 443,2013-11-12 09:31:00,
2013-11-12 04:36:00,24.2,10.6,30.56,North,-999,-999.0,-999.0,56,0.00,,,0.00,WSDL version 443,2013-11-12 09:36:00,
2013-11-12 04:41:00,24.1,10.6,30.56,North,-999,-999.0,-999.0,56,0.00,,,0.00,WSDL version 443,2013-11-12 09:41:00,
2013-11-12 04:46:00,23.9,10.6,30.56,North,-999,-999.0,-999.0,56,0.00,,,0.00,WSDL version 443,2013-11-12 09:46:00,
2013-11-12 04:51:00,23.7,10.8,30.56,North,-999,-999.0,-999.0,57,0.00,,,0.00,WSDL version 443,2013-11-12 09:51:00,
2013-11-12 04:56:00,23.6,11.0,30.56,North,-999,-999.0,-999.0,58,0.00,,,0.00,WSDL version 443,2013-11-12 09:56:00,
2013-11-12 05:01:00,23.5,11.2,30.56,North,-999,-999.0,-999.0,59,0.00,,,0.00,WSDL version 443,2013-11-12 10:01:00,
2013-11-12 05:06:00,23.5,10.9,30.56,North,-999,-999.0,-999.0,58,0.00,,,0.00,WSDL version 443,2013-11-12 10:06:00,
2013-11-12 05:11:00,23.5,11.2,30.56,North,-999,-999.0,-999.0,59,0.00,,,0.00,WSDL version 443,2013-11-12 10:11:00,
2013-11-12 05:16:00,23.4,11.1,30.56,North,-999,-999.0,-999.0,59,0.00,,,0.00,WSDL version 443,2013-11-12 10:16:00,
2013-11-12 05:21:00,23.4,11.4,30.56,North,-999,-999.0,-999.0,60,0.00,,,0.00,WSDL version 443,2013-11-12 10:21:00,
2013-11-12 05:26:00,23.2,11.4,30.56,North,-999,-999.0,-999.0,60,0.00,,,0.00,WSDL version 443,2013-11-12 10:26:00,
2013-11-12 05:31:00,23.1,11.5,30.56,North,-999,-999.0,-999.0,61,0.00,,,0.00,WSDL version 443,2013-11-12 10:31:00,
2013-11-12 05:36:00,22.9,11.2,30.56,North,-999,-999.0,-999.0,60,0.00,,,0.00,WSDL version 443,2013-11-12 10:36:00,
2013-11-12 05:41:00,22.8,11.6,30.56,North,-999,-999.0,-999.0,62,0.00,,,0.00,WSDL version 443,2013-11-12 10:41:00,
2013-11-12 05:46:00,22.8,12.0,30.56,North,-999,-999.0,-999.0,63,0.00,,,0.00,WSDL version 443,2013-11-12 10:46:00,
2013-11-12 05:51:00,22.6,11.9,30.56,North,-999,-999.0,-999.0,63,0.00,,,0.00,WSDL version 443,2013-11-12 10:51:00,
2013-11-12 05:56:00,22.6,12.1,30.56,North,-999,-999.0,-999.0,64,0.00,,,0.00,WSDL version 443,2013-11-12 10:56:00,
2013-11-12 06:01:00,22.5,12.1,30.56,North,-999,-999.0,-999.0,64,0.00,,,0.00,WSDL version 443,2013-11-12 11:01:00,
2013-11-12 06:06:00,22.4,12.4,30.56,North,-999,-999.0,-999.0,65,0.00,,,0.00,WSDL version 443,2013-11-12 11:06:00,
2013-11-12 06:11:00,22.3,12.3,30.56,North,-999,-999.0,-999.0,65,0.00,,,0.00,WSDL version 443,2013-11-12 11:11:00,
2013-11-12 06:16:00,22.3,12.7,30.56,North,-999,-999.0,-999.0,66,0.00,,,0.00,WSDL version 443,2013-11-12 11:16:00,
2013-11-12 06:21:00,22.3,13.0,30.56,North,-999,-999.0,-999.0,67,0.00,,,0.00,WSDL version 443,2013-11-12 11:21:00,
2013-11-12 06:26:00,22.3,13.0,30.56,North,-999,-999.0,-999.0,67,0.00,,,0.00,WSDL version 443,2013-11-12 11:26:00,
2013-11-12 06:31:00,22.3,13.3,30.56,North,-999,-999.0,-999.0,68,0.00,,,0.00,WSDL version 443,2013-11-12 11:31:00,
2013-11-12 06:36:00,22.4,13.4,30.56,North,-999,-999.0,-999.0,68,0.00,,,0.00,WSDL version 443,2013-11-12 11:36:00,
2013-11-12 06:41:00,22.3,13.4,30.56,North,-999,-999.0,-999.0,68,0.00,,,0.00,WSDL version 443,2013-11-12 11:41:00,
2013-11-12 06:46:00,22.5,13.5,30.56,North,-999,-999.0,-999.0,68,0.00,,,0.00,WSDL version 443,2013-11-12 11:46:00,
2013-11-12 06:51:00,22.5,13.5,30.56,North,-999,-999.0,-999.0,68,0.00,,,0.00,WSDL version 443,2013-11-12 11:51:00,
2013-11-12 06:56:00,22.4,13.2,30.56,North,-999,-999.0,-999.0,67,0.00,,,0.00,WSDL version 443,2013-11-12 11:56:00,
2013-11-12 07:01:00,22.3,13.0,30.56,North,-999,-999.0,-999.0,67,0.00,,,0.00,WSDL version 443,2013-11-12 12:01:00,
2013-11-12 07:06:00,22.4,13.1,30.59,North,-999,-999.0,-999.0,67,0.00,,,0.00,WSDL version 443,2013-11-12 12:06:00,
2013-11-12 07:11:00,22.5,13.2,30.59,North,-999,-999.0,-999.0,67,0.00,,,0.00,WSDL version 443,2013-11-12 12:11:00,
2013-11-12 07:16:00,22.4,13.0,30.59,North,-999,-999.0,-999.0,67,0.00,,,0.00,WSDL version 443,2013-11-12 12:16:00,
2013-11-12 07:21:00,22.3,12.7,30.59,North,-999,-999.0,-999.0,66,0.00,,,0.00,WSDL version 443,2013-11-12 12:21:00,
2013-11-12 07:26:00,22.1,12.5,30.59,North,-999,-999.0,-999.0,66,0.00,,,0.00,WSDL version 443,2013-11-12 12:26:00,
2013-11-12 07:31:00,22.0,12.3,30.59,North,-999,-999.0,-999.0,66,0.00,,,0.00,WSDL version 443,2013-11-12 12:31:00,
2013-11-12 07:36:00,22.3,13.2,30.59,North,-999,-999.0,-999.0,68,0.00,,,0.00,WSDL version 443,2013-11-12 12:36:00,
2013-11-12 07:41:00,23.1,14.6,30.59,North,-999,-999.0,-999.0,70,0.00,,,0.00,WSDL version 443,2013-11-12 12:41:00,
2013-11-12 07:46:00,23.7,14.6,30.59,North,-999,-999.0,-999.0,68,0.00,,,0.00,WSDL version 443,2013-11-12 12:46:00,
2013-11-12 07:51:00,24.3,14.1,30.59,North,-999,-999.0,-999.0,65,0.00,,,0.00,WSDL version 443,2013-11-12 12:51:00,
2013-11-12 07:56:00,25.0,12.7,30.59,North,-999,-999.0,-999.0,59,0.00,,,0.00,WSDL version 443,2013-11-12 12:56:00,
2013-11-12 08:01:00,25.6,11.4,30.59,North,-999,-999.0,-999.0,54,0.00,,,0.00,WSDL version 443,2013-11-12 13:01:00,
2013-11-12 08:06:00,26.1,11.2,30.62,North,-999,-999.0,-999.0,53,0.00,,,0.00,WSDL version 443,2013-11-12 13:06:00,
2013-11-12 08:11:00,26.7,11.3,30.62,North,-999,-999.0,-999.0,52,0.00,,,0.00,WSDL version 443,2013-11-12 13:11:00,
2013-11-12 08:16:00,27.1,11.0,30.62,North,-999,-999.0,-999.0,50,0.00,,,0.00,WSDL version 443,2013-11-12 13:16:00,
2013-11-12 08:21:00,27.6,10.4,30.62,North,-999,-999.0,-999.0,48,0.00,,,0.00,WSDL version 443,2013-11-12 13:21:00,
2013-11-12 08:26:00,28.0,10.2,30.62,North,-999,-999.0,-999.0,47,0.00,,,0.00,WSDL version 443,2013-11-12 13:26:00,
2013-11-12 08:31:00,28.4,10.2,30.62,North,-999,-999.0,-999.0,46,0.00,,,0.00,WSDL version 443,2013-11-12 13:31:00,
2013-11-12 08:36:00,28.6,10.0,30.62,North,-999,-999.0,-999.0,45,0.00,,,0.00,WSDL version 443,2013-11-12 13:36:00,
2013-11-12 08:41:00,29.1,10.4,30.62,North,-999,-999.0,-999.0,45,0.00,,,0.00,WSDL version 443,2013-11-12 13:41:00,
2013-11-12 08:46:00,29.4,10.2,30.62,North,-999,-999.0,-999.0,44,0.00,,,0.00,WSDL version 443,2013-11-12 13:46:00,
2013-11-12 08:51:00,29.5,9.7,30.62,North,-999,-999.0,-999.0,43,0.00,,,0.00,WSDL version 443,2013-11-12 13:51:00,
2013-11-12 08:56:00,29.8,10.0,30.62,North,-999,-999.0,-999.0,43,0.00,,,0.00,WSDL version 443,2013-11-12 13:56:00,
2013-11-12 09:01:00,30.2,10.4,30.62,North,-999,-999.0,-999.0,43,0.00,,,0.00,WSDL version 443,2013-11-12 14:01:00,
2013-11-12 09:06:00,30.2,10.1,30.59,North,-999,-999.0,-999.0,43,0.00,,,0.00,WSDL version 443,2013-11-12 14:06:00,
2013-11-12 09:11:00,30.6,10.3,30.59,North,-999,-999.0,-999.0,42,0.00,,,0.00,WSDL version 443,2013-11-12 14:11:00,
2013-11-12 09:16:00,31.0,10.6,30.59,North,-999,-999.0,-999.0,42,0.00,,,0.00,WSDL version 443,2013-11-12 14:16:00,
2013-11-12 09:21:00,31.2,10.4,30.62,North,-999,-999.0,-999.0,41,0.00,,,0.00,WSDL version 443,2013-11-12 14:21:00,
2013-11-12 09:26:00,31.5,10.8,30.62,North,-999,-999.0,-999.0,42,0.00,,,0.00,WSDL version 443,2013-11-12 14:26:00,
2013-11-12 09:31:00,31.9,11.2,30.62,North,-999,-999.0,-999.0,42,0.00,,,0.00,WSDL version 443,2013-11-12 14:31:00,
2013-11-12 09:36:00,32.1,11.2,30.62,North,-999,-999.0,-999.0,41,0.00,,,0.00,WSDL version 443,2013-11-12 14:36:00,
2013-11-12 09:41:00,32.4,11.3,30.62,North,-999,-999.0,-999.0,41,0.00,,,0.00,WSDL version 443,2013-11-12 14:41:00,
2013-11-12 09:46:00,32.5,11.4,30.62,North,-999,-999.0,-999.0,41,0.00,,,0.00,WSDL version 443,2013-11-12 14:46:00,
2013-11-12 09:51:00,32.7,11.6,30.62,North,-999,-999.0,-999.0,41,0.00,,,0.00,WSDL version 443,2013-11-12 14:51:00,
2013-11-12 09:56:00,33.1,12.5,30.62,North,-999,-999.0,-999.0,42,0.00,,,0.00,WSDL version 443,2013-11-12 14:56:00,
2013-11-12 10:01:00,33.1,12.0,30.62,North,-999,-999.0,-999.0,41,0.00,,,0.00,WSDL version 443,2013-11-12 15:01:00,
2013-11-12 10:06:00,33.3,12.1,30.62,North,-999,-999.0,-999.0,41,0.00,,,0.00,WSDL version 443,2013-11-12 15:06:00,
2013-11-12 10:11:00,33.4,12.2,30.62,North,-999,-999.0,-999.0,41,0.00,,,0.00,WSDL version 443,2013-11-12 15:11:00,
2013-11-12 10:16:00,33.7,12.4,30.62,North,-999,-999.0,-999.0,41,0.00,,,0.00,WSDL version 443,2013-11-12 15:16:00,
2013-11-12 10:21:00,33.7,11.9,30.62,North,-999,-999.0,-999.0,40,0.00,,,0.00,WSDL version 443,2013-11-12 15:21:00,
2013-11-12 10:26:00,33.8,11.9,30.62,North,-999,-999.0,-999.0,40,0.00,,,0.00,WSDL version 443,2013-11-12 15:26:00,
2013-11-12 10:31:00,33.8,10.9,30.62,North,-999,-999.0,-999.0,38,0.00,,,0.00,WSDL version 443,2013-11-12 15:31:00,
2013-11-12 10:36:00,33.8,10.9,30.62,North,-999,-999.0,-999.0,38,0.00,,,0.00,WSDL version 443,2013-11-12 15:36:00,
2013-11-12 10:41:00,33.6,10.7,30.62,North,-999,-999.0,-999.0,38,0.00,,,0.00,WSDL version 443,2013-11-12 15:41:00,
2013-11-12 10:46:00,33.7,9.9,30.62,North,-999,-999.0,-999.0,37,0.00,,,0.00,WSDL version 443,2013-11-12 15:46:00,
2013-11-12 10:51:00,33.4,9.6,30.59,North,-999,-999.0,-999.0,37,0.00,,,0.00,WSDL version 443,2013-11-12 15:51:00,
2013-11-12 10:56:00,34.4,11.1,30.59,North,-999,-999.0,-999.0,37,0.00,,,0.00,WSDL version 443,2013-11-12 15:56:00,
2013-11-12 11:01:00,34.0,9.6,30.59,North,-999,-999.0,-999.0,36,0.00,,,0.00,WSDL version 443,2013-11-12 16:01:00,
2013-11-12 11:06:00,33.6,9.2,30.59,North,-999,-999.0,-999.0,36,0.00,,,0.00,WSDL version 443,2013-11-12 16:06:00,
2013-11-12 11:11:00,34.1,9.9,30.59,North,-999,-999.0,-999.0,36,0.00,,,0.00,WSDL version 443,2013-11-12 16:11:00,
2013-11-12 11:16:00,35.2,9.9,30.59,North,-999,-999.0,-999.0,35,0.00,,,0.00,WSDL version 443,2013-11-12 16:16:00,
2013-11-12 11:21:00,35.4,9.3,30.59,North,-999,-999.0,-999.0,33,0.00,,,0.00,WSDL version 443,2013-11-12 16:21:00,
2013-11-12 11:26:00,33.8,7.7,30.59,North,-999,-999.0,-999.0,33,0.00,,,0.00,WSDL version 443,2013-11-12 16:26:00,
2013-11-12 11:31:00,32.7,7.2,30.59,North,-999,-999.0,-999.0,34,0.00,,,0.00,WSDL version 443,2013-11-12 16:31:00,
2013-11-12 11:36:00,32.6,7.8,30.59,North,-999,-999.0,-999.0,35,0.00,,,0.00,WSDL version 443,2013-11-12 16:36:00,
2013-11-12 11:41:00,33.2,9.5,30.59,North,-999,-999.0,-999.0,37,0.00,,,0.00,WSDL version 443,2013-11-12 16:41:00,
2013-11-12 11:48:00,34.7,9.2,30.59,North,-999,-999.0,-999.0,34,0.00,,,0.00,WSDL version 443,2013-11-12 16:48:00,
2013-11-12 11:53:00,34.8,8.9,30.62,North,-999,-999.0,-999.0,34,0.00,,,0.00,WSDL version 443,2013-11-12 16:53:00,
2013-11-12 11:58:00,35.3,9.8,30.62,North,-999,-999.0,-999.0,34,0.00,,,0.00,WSDL version 443,2013-11-12 16:58:00,
2013-11-12 12:03:00,35.0,8.9,30.62,North,-999,-999.0,-999.0,33,0.00,,,0.00,WSDL version 443,2013-11-12 17:03:00,
2013-11-12 12:08:00,34.0,8.0,30.62,North,-999,-999.0,-999.0,33,0.00,,,0.00,WSDL version 443,2013-11-12 17:08:00,
2013-11-12 12:13:00,33.8,7.5,30.62,North,-999,-999.0,-999.0,33,0.00,,,0.00,WSDL version 443,2013-11-12 17:13:00,
2013-11-12 12:18:00,34.5,8.5,30.62,North,-999,-999.0,-999.0,33,0.00,,,0.00,WSDL version 443,2013-11-12 17:18:00,
2013-11-12 12:23:00,35.6,8.1,30.62,North,-999,-999.0,-999.0,31,0.00,,,0.00,WSDL version 443,2013-11-12 17:23:00,
2013-11-12 12:28:00,34.3,6.7,30.62,North,-999,-999.0,-999.0,31,0.00,,,0.00,WSDL version 443,2013-11-12 17:28:00,
2013-11-12 12:33:00,33.4,6.1,30.62,North,-999,-999.0,-999.0,31,0.00,,,0.00,WSDL version 443,2013-11-12 17:33:00,
2013-11-12 12:38:00,33.4,6.0,30.59,North,-999,-999.0,-999.0,31,0.00,,,0.00,WSDL version 443,2013-11-12 17:38:00,
2013-11-12 12:43:00,33.5,6.5,30.59,North,-999,-999.0,-999.0,32,0.00,,,0.00,WSDL version 443,2013-11-12 17:43:00,
2013-11-12 12:48:00,33.2,5.8,30.59,North,-999,-999.0,-999.0,31,0.00,,,0.00,WSDL version 443,2013-11-12 17:48:00,
2013-11-12 12:58:00,35.2,7.6,30.59,North,-999,-999.0,-999.0,31,0.00,,,0.00,WSDL version 443,2013-11-12 17:58:00,
2013-11-12 13:03:00,35.6,7.3,30.59,North,-999,-999.0,-999.0,30,0.00,,,0.00,WSDL version 443,2013-11-12 18:03:00,
2013-11-12 13:08:00,33.7,5.9,30.59,North,-999,-999.0,-999.0,31,0.00,,,0.00,WSDL version 443,2013-11-12 18:08:00,
2013-11-12 13:13:00,32.8,5.5,30.59,North,-999,-999.0,-999.0,31,0.00,,,0.00,WSDL version 443,2013-11-12 18:13:00,
2013-11-12 13:18:00,32.7,5.4,30.59,North,-999,-999.0,-999.0,31,0.00,,,0.00,WSDL version 443,2013-11-12 18:18:00,
2013-11-12 13:23:00,32.9,5.5,30.59,North,-999,-999.0,-999.0,31,0.00,,,0.00,WSDL version 443,2013-11-12 18:23:00,
2013-11-12 13:28:00,33.8,5.9,30.59,North,-999,-999.0,-999.0,30,0.00,,,0.00,WSDL version 443,2013-11-12 18:28:00,
2013-11-12 13:33:00,35.1,6.8,30.59,North,-999,-999.0,-999.0,30,0.00,,,0.00,WSDL version 443,2013-11-12 18:33:00,
2013-11-12 13:38:00,35.9,7.5,30.59,North,-999,-999.0,-999.0,30,0.00,,,0.00,WSDL version 443,2013-11-12 18:38:00,
2013-11-12 13:43:00,35.9,7.4,30.59,North,-999,-999.0,-999.0,30,0.00,,,0.00,WSDL version 443,2013-11-12 18:43:00,
2013-11-12 13:48:00,36.8,8.0,30.59,North,-999,-999.0,-999.0,30,0.00,,,0.00,WSDL version 443,2013-11-12 18:48:00,
2013-11-12 13:53:00,37.7,6.9,30.56,North,-999,-999.0,-999.0,27,0.00,,,0.00,WSDL version 443,2013-11-12 18:53:00,
2013-11-12 13:58:00,36.4,5.9,30.56,North,-999,-999.0,-999.0,27,0.00,,,0.00,WSDL version 443,2013-11-12 18:58:00,
2013-11-12 14:03:00,36.0,5.2,30.56,North,-999,-999.0,-999.0,27,0.00,,,0.00,WSDL version 443,2013-11-12 19:03:00,
2013-11-12 14:08:00,36.5,6.0,30.56,North,-999,-999.0,-999.0,27,0.00,,,0.00,WSDL version 443,2013-11-12 19:08:00,
2013-11-12 14:13:00,35.1,6.3,30.56,North,-999,-999.0,-999.0,29,0.00,,,0.00,WSDL version 443,2013-11-12 19:13:00,
2013-11-12 14:18:00,34.2,6.0,30.56,North,-999,-999.0,-999.0,30,0.00,,,0.00,WSDL version 443,2013-11-12 19:18:00,
2013-11-12 14:23:00,33.6,5.4,30.56,North,-999,-999.0,-999.0,30,0.00,,,0.00,WSDL version 443,2013-11-12 19:23:00,
2013-11-12 14:28:00,33.3,5.6,30.56,North,-999,-999.0,-999.0,31,0.00,,,0.00,WSDL version 443,2013-11-12 19:28:00,
2013-11-12 14:33:00,33.2,5.7,30.56,North,-999,-999.0,-999.0,31,0.00,,,0.00,WSDL version 443,2013-11-12 19:33:00,
2013-11-12 14:38:00,34.0,6.3,30.56,North,-999,-999.0,-999.0,31,0.00,,,0.00,WSDL version 443,2013-11-12 19:38:00,
2013-11-12 14:43:00,35.0,6.8,30.56,North,-999,-999.0,-999.0,30,0.00,,,0.00,WSDL version 443,2013-11-12 19:43:00,
2013-11-12 14:48:00,35.5,7.2,30.56,North,-999,-999.0,-999.0,30,0.00,,,0.00,WSDL version 443,2013-11-12 19:48:00,
2013-11-12 14:53:00,35.0,6.7,30.56,North,-999,-999.0,-999.0,30,0.00,,,0.00,WSDL version 443,2013-11-12 19:53:00,
2013-11-12 14:58:00,36.0,7.4,30.56,North,-999,-999.0,-999.0,30,0.00,,,0.00,WSDL version 443,2013-11-12 19:58:00,
2013-11-12 15:03:00,36.2,7.2,30.56,North,-999,-999.0,-999.0,29,0.00,,,0.00,WSDL version 443,2013-11-12 20:03:00,
2013-11-12 15:08:00,35.9,6.9,30.56,North,-999,-999.0,-999.0,29,0.00,,,0.00,WSDL version 443,2013-11-12 20:08:00,
2013-11-12 15:13:00,35.2,6.6,30.56,North,-999,-999.0,-999.0,30,0.00,,,0.00,WSDL version 443,2013-11-12 20:13:00,
2013-11-12 15:18:00,34.8,6.5,30.56,North,-999,-999.0,-999.0,30,0.00,,,0.00,WSDL version 443,2013-11-12 20:18:00,
2013-11-12 15:23:00,34.4,6.2,30.56,North,-999,-999.0,-999.0,30,0.00,,,0.00,WSDL version 443,2013-11-12 20:23:00,
2013-11-12 15:28:00,34.0,6.0,30.56,North,-999,-999.0,-999.0,30,0.00,,,0.00,WSDL version 443,2013-11-12 20:28:00,
2013-11-12 15:33:00,33.5,5.7,30.56,North,-999,-999.0,-999.0,31,0.00,,,0.00,WSDL version 443,2013-11-12 20:33:00,
2013-11-12 15:38:00,32.9,5.6,30.56,North,-999,-999.0,-999.0,31,0.00,,,0.00,WSDL version 443,2013-11-12 20:38:00,
2013-11-12 15:43:00,32.7,5.4,30.56,North,-999,-999.0,-999.0,31,0.00,,,0.00,WSDL version 443,2013-11-12 20:43:00,
2013-11-12 15:48:00,32.9,5.5,30.56,North,-999,-999.0,-999.0,31,0.00,,,0.00,WSDL version 443,2013-11-12 20:48:00,
2013-11-12 15:53:00,32.9,5.6,30.56,North,-999,-999.0,-999.0,31,0.00,,,0.00,WSDL version 443,2013-11-12 20:53:00,
2013-11-12 15:58:00,32.7,5.4,30.56,North,-999,-999.0,-999.0,31,0.00,,,0.00,WSDL version 443,2013-11-12 20:58:00,
2013-11-12 16:03:00,32.4,5.1,30.56,North,-999,-999.0,-999.0,31,0.00,,,0.00,WSDL version 443,2013-11-12 21:03:00,
2013-11-12 16:08:00,32.1,4.9,30.56,North,-999,-999.0,-999.0,31,0.00,,,0.00,WSDL version 443,2013-11-12 21:08:00,
2013-11-12 16:13:00,32.3,5.1,30.56,North,-999,-999.0,-999.0,31,0.00,,,0.00,WSDL version 443,2013-11-12 21:13:00,
2013-11-12 16:18:00,32.6,5.3,30.56,North,-999,-999.0,-999.0,31,0.00,,,0.00,WSDL version 443,2013-11-12 21:18:00,
2013-11-12 16:23:00,32.3,5.2,30.56,North,-999,-999.0,-999.0,31,0.00,,,0.00,WSDL version 443,2013-11-12 21:23:00,
2013-11-12 16:28:00,32.5,5.5,30.56,North,-999,-999.0,-999.0,31,0.00,,,0.00,WSDL version 443,2013-11-12 21:28:00,
2013-11-12 16:33:00,31.9,4.9,30.56,North,-999,-999.0,-999.0,31,0.00,,,0.00,WSDL version 443,2013-11-12 21:33:00,
2013-11-12 16:38:00,31.3,4.6,30.56,North,-999,-999.0,-999.0,32,0.00,,,0.00,WSDL version 443,2013-11-12 21:38:00,
2013-11-12 16:43:00,31.1,4.7,30.56,North,-999,-999.0,-999.0,32,0.00,,,0.00,WSDL version 443,2013-11-12 21:43:00,
2013-11-12 16:48:00,30.9,4.5,30.56,North,-999,-999.0,-999.0,32,0.00,,,0.00,WSDL version 443,2013-11-12 21:48:00,
2013-11-12 16:53:00,30.8,4.9,30.56,North,-999,-999.0,-999.0,33,0.00,,,0.00,WSDL version 443,2013-11-12 21:53:00,
2013-11-12 16:58:00,30.6,4.9,30.56,North,-999,-999.0,-999.0,33,0.00,,,0.00,WSDL version 443,2013-11-12 21:58:00,
2013-11-12 17:03:00,30.4,5.4,30.56,North,-999,-999.0,-999.0,34,0.00,,,0.00,WSDL version 443,2013-11-12 22:03:00,
2013-11-12 17:08:00,30.3,5.3,30.56,North,-999,-999.0,-999.0,34,0.00,,,0.00,WSDL version 443,2013-11-12 22:08:00,
2013-11-12 17:13:00,30.3,4.8,30.56,North,-999,-999.0,-999.0,33,0.00,,,0.00,WSDL version 443,2013-11-12 22:13:00,
2013-11-12 17:18:00,30.3,5.0,30.56,North,-999,-999.0,-999.0,34,0.00,,,0.00,WSDL version 443,2013-11-12 22:18:00,
2013-11-12 17:23:00,30.2,5.2,30.56,North,-999,-999.0,-999.0,34,0.00,,,0.00,WSDL version 443,2013-11-12 22:23:00,
2013-11-12 17:28:00,29.8,4.9,30.56,North,-999,-999.0,-999.0,34,0.00,,,0.00,WSDL version 443,2013-11-12 22:28:00,
2013-11-12 17:33:00,29.5,4.8,30.56,North,-999,-999.0,-999.0,34,0.00,,,0.00,WSDL version 443,2013-11-12 22:33:00,
2013-11-12 17:38:00,29.3,3.7,30.56,North,-999,-999.0,-999.0,33,0.00,,,0.00,WSDL version 443,2013-11-12 22:38:00,
2013-11-12 17:43:00,29.3,3.7,30.56,North,-999,-999.0,-999.0,33,-99.99,,,-99.99,WSDL version 443,2013-11-12 22:43:00,
2013-11-12 17:48:00,29.1,3.4,30.56,North,-999,-999.0,-999.0,33,0.00,,,0.00,WSDL version 443,2013-11-12 22:48:00,
2013-11-12 17:53:00,29.0,3.1,30.53,North,-999,-999.0,-999.0,32,0.00,,,0.00,WSDL version 443,2013-11-12 22:53:00,
2013-11-12 17:58:00,28.8,3.3,30.53,North,-999,-999.0,-999.0,33,0.00,,,0.00,WSDL version 443,2013-11-12 22:58:00,
2013-11-12 18:03:00,28.8,3.3,30.53,North,-999,-999.0,-999.0,33,0.00,,,0.00,WSDL version 443,2013-11-12 23:03:00,
2013-11-12 18:08:00,28.6,3.4,30.56,North,-999,-999.0,-999.0,33,0.00,,,0.00,WSDL version 443,2013-11-12 23:08:00,
2013-11-12 18:13:00,28.5,3.3,30.56,North,-999,-999.0,-999.0,33,0.00,,,0.00,WSDL version 443,2013-11-12 23:13:00,
2013-11-12 18:18:00,28.3,3.5,30.56,North,-999,-999.0,-999.0,34,0.00,,,0.00,WSDL version 443,2013-11-12 23:18:00,
2013-11-12 18:23:00,28.0,3.7,30.56,North,-999,-999.0,-999.0,35,0.00,,,0.00,WSDL version 443,2013-11-12 23:23:00,
2013-11-12 18:28:00,27.8,3.6,30.56,North,-999,-999.0,-999.0,35,0.00,,,0.00,WSDL version 443,2013-11-12 23:28:00,
2013-11-12 18:33:00,27.5,4.0,30.56,North,-999,-999.0,-999.0,36,0.00,,,0.00,WSDL version 443,2013-11-12 23:33:00,
2013-11-12 18:40:00,27.3,4.5,30.59,North,-999,-999.0,-999.0,37,0.00,,,0.00,WSDL version 443,2013-11-12 23:40:00,
2013-11-12 18:45:00,27.1,4.4,30.59,North,-999,-999.0,-999.0,37,0.00,,,0.00,WSDL version 443,2013-11-12 23:45:00,
2013-11-12 18:50:00,27.0,4.7,30.59,North,-999,-999.0,-999.0,38,0.00,,,0.00,WSDL version 443,2013-11-12 23:50:00,
2013-11-12 19:00:00,26.7,5.4,30.59,North,-999,-999.0,-999.0,40,0.00,,,0.00,WSDL version 443,2013-11-13 00:00:00,
2013-11-12 19:05:00,26.6,6.1,30.59,North,-999,-999.0,-999.0,41,0.00,,,0.00,WSDL version 443,2013-11-13 00:05:00,
2013-11-12 19:10:00,26.5,6.2,30.59,North,-999,-999.0,-999.0,42,0.00,,,0.00,WSDL version 443,2013-11-13 00:10:00,
2013-11-12 19:15:00,26.3,6.3,30.59,North,-999,-999.0,-999.0,42,0.00,,,0.00,WSDL version 443,2013-11-13 00:15:00,
2013-11-12 19:20:00,26.2,6.3,30.59,North,-999,-999.0,-999.0,42,0.00,,,0.00,WSDL version 443,2013-11-13 00:20:00,
2013-11-12 19:25:00,26.2,6.3,30.59,North,-999,-999.0,-999.0,42,0.00,,,0.00,WSDL version 443,2013-11-13 00:25:00,
2013-11-12 19:30:00,26.1,6.1,30.59,North,-999,-999.0,-999.0,42,0.00,,,0.00,WSDL version 443,2013-11-13 00:30:00,
2013-11-12 19:35:00,25.9,6.0,30.59,North,-999,-999.0,-999.0,42,0.00,,,0.00,WSDL version 443,2013-11-13 00:35:00,
2013-11-12 19:40:00,25.8,5.8,30.59,North,-999,-999.0,-999.0,42,0.00,,,0.00,WSDL version 443,2013-11-13 00:40:00,
2013-11-12 19:45:00,25.6,5.8,30.59,North,-999,-999.0,-999.0,42,0.00,,,0.00,WSDL version 443,2013-11-13 00:45:00,
2013-11-12 19:50:00,25.5,6.1,30.59,North,-999,-999.0,-999.0,43,0.00,,,0.00,WSDL version 443,2013-11-13 00:50:00,
2013-11-12 19:55:00,25.4,6.0,30.59,North,-999,-999.0,-999.0,43,0.00,,,0.00,WSDL version 443,2013-11-13 00:55:00,
2013-11-12 20:00:00,25.3,6.0,30.59,North,-999,-999.0,-999.0,43,0.00,,,0.00,WSDL version 443,2013-11-13 01:00:00,
2013-11-12 20:10:00,24.8,6.4,30.59,North,-999,-999.0,-999.0,45,0.00,,,0.00,WSDL version 443,2013-11-13 01:10:00,
2013-11-12 20:15:00,24.6,6.8,30.59,North,-999,-999.0,-999.0,46,0.00,,,0.00,WSDL version 443,2013-11-13 01:15:00,
2013-11-12 20:20:00,24.5,6.7,30.59,North,-999,-999.0,-999.0,46,0.00,,,0.00,WSDL version 443,2013-11-13 01:20:00,
2013-11-12 20:25:00,24.2,6.7,30.59,North,-999,-999.0,-999.0,47,0.00,,,0.00,WSDL version 443,2013-11-13 01:25:00,
2013-11-12 20:30:00,23.8,6.0,30.59,North,-999,-999.0,-999.0,46,0.00,,,0.00,WSDL version 443,2013-11-13 01:30:00,
2013-11-12 20:35:00,23.7,6.4,30.62,North,-999,-999.0,-999.0,47,0.00,,,0.00,WSDL version 443,2013-11-13 01:35:00,
2013-11-12 20:45:00,22.8,5.1,30.62,North,-999,-999.0,-999.0,46,0.00,,,0.00,WSDL version 443,2013-11-13 01:45:00,
2013-11-12 20:50:00,22.6,4.9,30.62,North,-999,-999.0,-999.0,46,0.00,,,0.00,WSDL version 443,2013-11-13 01:50:00,
2013-11-12 20:55:00,22.3,5.5,30.62,North,-999,-999.0,-999.0,48,0.00,,,0.00,WSDL version 443,2013-11-13 01:55:00,
2013-11-12 21:05:00,21.6,5.8,30.62,North,-999,-999.0,-999.0,50,0.00,,,0.00,WSDL version 443,2013-11-13 02:05:00,
2013-11-12 21:10:00,21.7,6.2,30.62,North,-999,-999.0,-999.0,51,0.00,,,0.00,WSDL version 443,2013-11-13 02:10:00,
2013-11-12 21:15:00,21.6,6.3,30.62,North,-999,-999.0,-999.0,51,0.00,,,0.00,WSDL version 443,2013-11-13 02:15:00,
2013-11-12 21:20:00,21.4,6.1,30.62,North,-999,-999.0,-999.0,51,0.00,,,0.00,WSDL version 443,2013-11-13 02:20:00,
2013-11-12 21:25:00,21.4,6.5,30.62,North,-999,-999.0,-999.0,52,0.00,,,0.00,WSDL version 443,2013-11-13 02:25:00,
2013-11-12 21:30:00,21.2,6.7,30.62,North,-999,-999.0,-999.0,53,0.00,,,0.00,WSDL version 443,2013-11-13 02:30:00,
2013-11-12 21:40:00,21.2,6.8,30.62,North,-999,-999.0,-999.0,53,0.00,,,0.00,WSDL version 443,2013-11-13 02:40:00,
2013-11-12 21:45:00,21.0,6.6,30.62,North,-999,-999.0,-999.0,53,0.00,,,0.00,WSDL version 443,2013-11-13 02:45:00,
2013-11-12 21:50:00,20.5,6.1,30.62,North,-999,-999.0,-999.0,53,0.00,,,0.00,WSDL version 443,2013-11-13 02:50:00,
2013-11-12 21:55:00,20.2,5.8,30.62,North,-999,-999.0,-999.0,53,0.00,,,0.00,WSDL version 443,2013-11-13 02:55:00,
2013-11-12 22:00:00,20.2,6.2,30.62,North,-999,-999.0,-999.0,54,0.00,,,0.00,WSDL version 443,2013-11-13 03:00:00,
2013-11-12 22:05:00,20.4,6.4,30.62,North,-999,-999.0,-999.0,54,0.00,,,0.00,WSDL version 443,2013-11-13 03:05:00,
2013-11-12 22:10:00,21.0,7.5,30.62,North,-999,-999.0,-999.0,55,0.00,,,0.00,WSDL version 443,2013-11-13 03:10:00,
2013-11-12 22:15:00,21.3,8.2,30.62,North,-999,-999.0,-999.0,56,0.00,,,0.00,WSDL version 443,2013-11-13 03:15:00,
2013-11-12 22:20:00,21.7,9.5,30.59,North,-999,-999.0,-999.0,59,0.00,,,0.00,WSDL version 443,2013-11-13 03:20:00,
2013-11-12 22:25:00,21.8,10.1,30.59,North,-999,-999.0,-999.0,60,0.00,,,0.00,WSDL version 443,2013-11-13 03:25:00,
2013-11-12 22:30:00,21.9,10.2,30.59,North,-999,-999.0,-999.0,60,0.00,,,0.00,WSDL version 443,2013-11-13 03:30:00,
2013-11-12 22:35:00,21.8,9.6,30.62,North,-999,-999.0,-999.0,59,0.00,,,0.00,WSDL version 443,2013-11-13 03:35:00,
2013-11-12 22:40:00,21.7,9.4,30.62,North,-999,-999.0,-999.0,58,0.00,,,0.00,WSDL version 443,2013-11-13 03:40:00,
2013-11-12 22:45:00,21.7,9.2,30.62,North,-999,-999.0,-999.0,58,0.00,,,0.00,WSDL version 443,2013-11-13 03:45:00,
2013-11-12 22:50:00,21.8,9.4,30.62,North,-999,-999.0,-999.0,58,0.00,,,0.00,WSDL version 443,2013-11-13 03:50:00,
2013-11-12 22:55:00,21.9,9.7,30.62,North,-999,-999.0,-999.0,59,0.00,,,0.00,WSDL version 443,2013-11-13 03:55:00,
2013-11-12 23:00:00,21.9,9.4,30.62,North,-999,-999.0,-999.0,58,0.00,,,0.00,WSDL version 443,2013-11-13 04:00:00,
2013-11-12 23:05:00,21.9,9.0,30.62,North,-999,-999.0,-999.0,57,0.00,,,0.00,WSDL version 443,2013-11-13 04:05:00,
2013-11-12 23:10:00,21.6,8.3,30.62,North,-999,-999.0,-999.0,56,0.00,,,0.00,WSDL version 443,2013-11-13 04:10:00,
2013-11-12 23:15:00,21.3,7.8,30.62,North,-999,-999.0,-999.0,55,0.00,,,0.00,WSDL version 443,2013-11-13 04:15:00,
2013-11-12 23:20:00,21.1,7.4,30.62,North,-999,-999.0,-999.0,55,0.00,,,0.00,WSDL version 443,2013-11-13 04:20:00,
2013-11-12 23:25:00,21.0,7.4,30.62,North,-999,-999.0,-999.0,55,0.00,,,0.00,WSDL version 443,2013-11-13 04:25:00,
2013-11-12 23:30:00,20.9,7.3,30.62,North,-999,-999.0,-999.0,55,0.00,,,0.00,WSDL version 443,2013-11-13 04:30:00,
2013-11-12 23:35:00,20.7,7.0,30.62,North,-999,-999.0,-999.0,55,0.00,,,0.00,WSDL version 443,2013-11-13 04:35:00,
2013-11-12 23:40:00,20.6,7.0,30.62,North,-999,-999.0,-999.0,55,0.00,,,0.00,WSDL version 443,2013-11-13 04:40:00,
2013-11-12 23:45:00,20.5,7.1,30.62,North,-999,-999.0,-999.0,56,0.00,,,0.00,WSDL version 443,2013-11-13 04:45:00,
2013-11-12 23:50:00,20.5,7.5,30.62,North,-999,-999.0,-999.0,57,0.00,,,0.00,WSDL version 443,2013-11-13 04:50:00,
2013-11-12 23:55:00,20.6,8.3,30.62,North,-999,-999.0,-999.0,58,0.00,,,0.00,WSDL version 443,2013-11-13 04:55:00,